Morgantown, WV

10:26 AM EDT on April 23, 2018 (GMT -0400)
Morgantown Municipal-Hart

Weather History for KMGW - January, 2014

Change the Weather History Date:

Saturday, January 25, 2014

  Actual Average Record
Temperature  
Mean Temperature 21 °F 32 °F  
Max Temperature 26 °F 39 °F 75 °F (1950)
Min Temperature 16 °F 24 °F -11 °F (1936)
Degree Days  
Heating Degree Days 44 34  
Month to date heating degree days 877 847  
Since 1 July heating degree days 2831 2831  
Cooling Degree Days 0 0  
Month to date cooling degree days 0 0  
Year to date cooling degree days 0 0  
Moisture  
Dew Point 16 °F    
Average Humidity 59    
Maximum Humidity 92    
Minimum Humidity 25    
Precipitation  
Precipitation 0.08 in 0.09 in 1.10 in (1978)
Month to date precipitation 1.67 2.26  
Year to date precipitation 1.67 2.26  
Sea Level Pressure  
Sea Level Pressure 29.57 in    
Wind  
Wind Speed 10 mph (WSW)    
Max Wind Speed 21 mph    
Max Gust Speed 35 mph    
Visibility 4 miles    
Events Fog , Snow    
T = Trace of Precipitation, MM = Missing Value Source: NWS Daily Summary

Daily Weather History Graph

Daily Weather History Graph

Search for Another Location

Airport or City:

Astronomy

Jan. 25, 2014 Rise Set
Actual Time 7:33 AM EST 5:31 PM EST
Civil Twilight 7:04 AM EST 6:00 PM EST
Nautical Twilight 6:31 AM EST 6:32 PM EST
Astronomical Twilight 5:59 AM EST 7:04 PM EST
Moon 2:03 AM EST (1/25) 12:30 PM EST (1/25)
Length of Visible Light 10h 56m
Length of Day
9h 58m
Waning Crescent, 34% of the Moon is Illuminated
Jan 25
Waning Crescent
Jan 30
New
Feb 6
First Quarter
Feb 14
Full
Feb 22
Last Quarter

Hourly Weather History & Observations

Time (EST) Temp. Windchill Dew Point Humidity Pressure Visibility Wind Dir Wind Speed Gust Speed Precip Events Conditions
12:53 AM 21.0 °F 10.6 °F -6.0 °F 30% 29.89 in 10.0 mi SSW 9.2 mph 19.6 mph N/A   Clear
1:53 AM 23.0 °F 14.7 °F -7.1 °F 27% 29.84 in 10.0 mi SSW 6.9 mph - N/A   Clear
2:53 AM 24.1 °F 12.5 °F -7.1 °F 25% 29.80 in 10.0 mi SW 12.7 mph 23.0 mph N/A   Clear
3:53 AM 24.1 °F 13.7 °F -6.0 °F 27% 29.76 in 10.0 mi SW 10.4 mph 25.3 mph N/A   Overcast
4:53 AM 23.0 °F 10.6 °F 6.1 °F 48% 29.74 in 6.0 mi SW 13.8 mph 29.9 mph 0.00 in Snow Light Snow
5:39 AM 21.2 °F 10.1 °F 12.2 °F 68% 29.64 in 2.5 mi SW 10.4 mph 19.6 mph 0.00 in Snow Light Snow
5:53 AM 21.0 °F 8.1 °F 14.0 °F 74% 29.70 in 2.0 mi SW 13.8 mph 23.0 mph 0.00 in Snow Light Snow
6:04 AM 19.4 °F 10.4 °F 15.8 °F 86% 29.64 in 1.8 mi WSW 6.9 mph 16.1 mph 0.00 in Snow Light Snow
6:33 AM 19.4 °F 12.8 °F 15.8 °F 86% 29.63 in 1.2 mi SW 4.6 mph - 0.00 in Snow Light Snow
6:53 AM 19.9 °F 7.9 °F 17.1 °F 89% 29.68 in 1.2 mi SSW 11.5 mph 25.3 mph 0.00 in Snow Light Snow
7:14 AM 19.4 °F 10.4 °F 17.6 °F 93% 29.61 in 1.8 mi SW 6.9 mph - 0.01 in Snow Light Snow
7:23 AM 19.4 °F 10.4 °F 17.6 °F 93% 29.60 in 2.0 mi SSW 6.9 mph - 0.01 in Snow Light Snow
7:30 AM 19.4 °F 11.5 °F 17.6 °F 93% 29.60 in 3.0 mi Variable 5.8 mph - 0.01 in Snow Light Snow
7:53 AM 21.0 °F 13.4 °F 16.0 °F 81% 29.64 in 10.0 mi SSW 5.8 mph 16.1 mph 0.01 in   Overcast
8:53 AM 21.0 °F 9.9 °F 16.0 °F 81% 29.61 in 4.0 mi SSW 10.4 mph - N/A   Haze
9:20 AM 21.2 °F 12.6 °F 17.6 °F 86% 29.54 in 2.0 mi SSW 6.9 mph - 0.00 in Snow Light Snow
9:31 AM 21.2 °F 11.7 °F 17.6 °F 86% 29.54 in 3.0 mi SSW 8.1 mph 16.1 mph 0.00 in Snow Light Snow
9:39 AM 21.2 °F 11.7 °F 17.6 °F 86% 29.53 in 2.0 mi SW 8.1 mph - 0.00 in Snow Light Snow
9:53 AM 21.9 °F 12.5 °F 18.0 °F 85% 29.58 in 1.5 mi SSW 8.1 mph - 0.00 in Snow Light Snow
10:41 AM 23.0 °F 13.9 °F 19.4 °F 86% 29.51 in 1.8 mi SSW 8.1 mph 18.4 mph 0.00 in Snow Light Snow
10:51 AM 24.8 °F 15.3 °F 19.4 °F 80% 29.51 in 1.2 mi SW 9.2 mph 19.6 mph 0.00 in Snow Light Snow
10:53 AM 24.1 °F 13.7 °F 19.0 °F 81% 29.56 in 1.2 mi SW 10.4 mph 19.6 mph 0.00 in Snow Light Snow
11:39 AM 24.8 °F 15.3 °F 19.4 °F 80% 29.48 in 0.8 mi SSW 9.2 mph 26.5 mph 0.00 in Snow Light Snow
11:53 AM 24.1 °F 13.1 °F 19.9 °F 84% 29.52 in 0.8 mi South 11.5 mph 19.6 mph 0.00 in Snow Light Snow
12:07 PM 24.8 °F 14.0 °F 21.2 °F 86% 29.46 in 1.0 mi SSW 11.5 mph 19.6 mph 0.00 in Snow Light Snow
12:26 PM 24.8 °F 12.9 °F 21.2 °F 86% 29.45 in 0.8 mi SSW 13.8 mph 24.2 mph 0.01 in Snow Light Snow
12:53 PM 24.1 °F 14.4 °F 21.0 °F 88% 29.48 in 0.5 mi SSW 9.2 mph 20.7 mph 0.01 in Fog , Snow Light Snow
1:53 PM 24.1 °F 15.2 °F 21.0 °F 88% 29.46 in 0.5 mi SSW 8.1 mph 19.6 mph 0.01 in Fog , Snow Light Snow
2:53 PM 25.0 °F 16.3 °F 21.9 °F 88% 29.46 in 0.8 mi SW 8.1 mph 18.4 mph 0.00 in Snow Light Snow
3:31 PM 24.8 °F 17.9 °F 21.2 °F 86% 29.42 in 0.8 mi Variable 5.8 mph - 0.01 in Snow Light Snow
3:53 PM 25.0 °F 15.5 °F 21.9 °F 88% 29.47 in 0.5 mi SW 9.2 mph - 0.01 in Fog , Snow Light Snow
4:43 PM 24.8 °F 14.6 °F 21.2 °F 86% 29.44 in 0.8 mi SW 10.4 mph 19.6 mph 0.01 in Snow Light Snow
4:53 PM 25.0 °F 15.5 °F 23.0 °F 92% 29.49 in 1.0 mi SSW 9.2 mph 16.1 mph 0.01 in Snow Light Snow
5:07 PM 24.8 °F 14.0 °F 21.2 °F 86% 29.44 in 3.0 mi SW 11.5 mph 19.6 mph 0.00 in Snow Light Snow
5:42 PM 26.6 °F 19.1 °F 19.4 °F 74% 29.45 in 10.0 mi SW 6.9 mph - 0.00 in   Mostly Cloudy
5:53 PM 26.1 °F 15.6 °F 19.0 °F 75% 29.50 in 10.0 mi WSW 11.5 mph 18.4 mph 0.00 in   Mostly Cloudy
6:03 PM 26.6 °F 19.1 °F 19.4 °F 74% 29.46 in 1.8 mi Variable 6.9 mph 19.6 mph 0.00 in Snow Light Snow
6:13 PM 24.8 °F 19.1 °F 21.2 °F 86% 29.46 in 1.5 mi WNW 4.6 mph - 0.00 in Snow Light Snow
6:22 PM 24.8 °F 19.1 °F 21.2 °F 86% 29.47 in 2.5 mi NW 4.6 mph - 0.00 in Snow Light Snow
6:29 PM 24.8 °F 15.3 °F 21.2 °F 86% 29.49 in 0.8 mi WNW 9.2 mph - 0.01 in Snow Light Snow
6:32 PM 24.8 °F 16.1 °F 23.0 °F 93% 29.49 in 0.5 mi WNW 8.1 mph - 0.01 in Fog , Snow Snow
6:39 PM 24.8 °F 16.1 °F 23.0 °F 93% 29.50 in 0.2 mi West 8.1 mph - 0.02 in Fog , Snow Snow
6:45 PM 24.8 °F 17.9 °F 23.0 °F 93% 29.50 in 1.0 mi Variable 5.8 mph 20.7 mph 0.02 in Snow Light Snow
6:50 PM 24.8 °F 14.0 °F 21.2 °F 86% 29.50 in 3.0 mi West 11.5 mph 17.3 mph 0.02 in Snow Light Snow
6:53 PM 25.0 °F 16.3 °F 21.0 °F 85% 29.55 in 6.0 mi West 8.1 mph 17.3 mph 0.02 in Snow Light Snow
7:10 PM 24.8 °F 14.0 °F 17.6 °F 74% 29.51 in 10.0 mi West 11.5 mph 21.9 mph N/A   Overcast
7:17 PM 24.8 °F 12.4 °F 17.6 °F 74% 29.53 in 2.0 mi WNW 15.0 mph 27.6 mph 0.00 in Snow Light Snow
7:21 PM 23.0 °F 12.4 °F 19.4 °F 86% 29.54 in 0.8 mi WNW 10.4 mph 27.6 mph 0.01 in Snow Light Snow
7:30 PM 21.2 °F 9.5 °F 19.4 °F 93% 29.55 in 0.5 mi WNW 11.5 mph 23.0 mph 0.01 in Fog , Snow Snow
7:33 PM 21.2 °F 8.9 °F 19.4 °F 93% 29.55 in 0.5 mi West 12.7 mph 25.3 mph 0.01 in Fog , Snow Light Snow
7:41 PM 21.2 °F 10.1 °F 17.6 °F 86% 29.56 in 2.0 mi West 10.4 mph 25.3 mph 0.01 in Snow Light Snow
7:46 PM 21.2 °F 10.1 °F 15.8 °F 80% 29.56 in 6.0 mi West 10.4 mph 24.2 mph 0.01 in   Haze
7:53 PM 21.9 °F 10.4 °F 14.0 °F 72% 29.62 in 10.0 mi West 11.5 mph 21.9 mph 0.01 in   Scattered Clouds
8:53 PM 21.0 °F 11.4 °F 10.0 °F 63% 29.67 in 10.0 mi West 8.1 mph 18.4 mph N/A   Scattered Clouds
9:53 PM 19.0 °F 7.5 °F 12.9 °F 77% 29.72 in 2.5 mi West 10.4 mph 19.6 mph 0.00 in Snow Light Snow
10:02 PM 19.4 °F 10.4 °F 12.2 °F 74% 29.68 in 4.0 mi WNW 6.9 mph - 0.00 in Snow Light Snow
10:27 PM 17.6 °F 5.0 °F 10.4 °F 73% 29.69 in 10.0 mi WNW 11.5 mph 18.4 mph 0.00 in   Overcast
10:53 PM 18.0 °F 6.9 °F 6.1 °F 60% 29.76 in 10.0 mi WNW 9.2 mph 19.6 mph 0.00 in   Overcast
11:53 PM 16.0 °F 4.4 °F 5.0 °F 62% 29.80 in 10.0 mi West 9.2 mph 17.3 mph N/A   Overcast